Location: Namasale
(1.5000°N, 32.6167°E)
Time: 23:21:04
(UTC+00:00)

Transit 2A - Pass Details

Date: 25 April 2021
Orbit: 602 x 957 km, 66.7° (Epoch: 11 May)

Event Time Altitude Azimuth Distance (km) Brightness Sun altitude
Rises 13:54:42 0° 342° (NNW) 3,060 9.5 27.7°
Reaches altitude 10° 13:56:55 10° 342° (NNW) 2,194 8.9 27.2°
Maximum altitude 14:01:57 84° 71° (ENE) 781 6.4 26.0°
Drops below altitude 10° 14:07:34 10° 158° (SSE) 2,444 8.4 24.6°
Sets 14:10:09 0° 159° (SSE) 3,435 9.1 24.0°
